IRIDIUM 33 DEB, 35850

Orbit data source: Space-Track

IRIDIUM 33 DEB, 35850 is space debris in LEO originally from a launch on Sun, 14 Sep 1997 UTC launched from the Tyuratam Missile And Space Complex (TTMTR). The debris from Iridium 33, an American commercial communications satellite, has been tracked extensively since its accidental collision with the defunct Russian satellite Cosmos 2251 in 2009. This event, occurring at high speed in low Earth orbit (LEO), generated thousands of pieces of space debris, significantly increasing the risk of further collisions. The Iridium 33 debris cloud has impacted space traffic management and orbital debris mitigation strategies, making it a subject of ongoing study in space situational awareness.

Loading next visibility...
Identifier
35850, 1997-051TA
Orbit
LEO
Country
Flag of USUS
Related business
Manufacturer
Unknown
Mission
Spacecraft
Bus & Motor
Unknown
Mass
Unknown
Launch date (UTC)
1997-09-14 (29 years ago)
Launch vehicle
Unknown
Launch site
Tyuratam Missile And Space Complex (TTMTR)
Object type
Payload
Rocket body
Debris
Shape & HBR
Unknown shape, 0.1 m
Radar Cross Section
Small (<0.1 m²)

Expand to show TLE details & history
Last TLE update: 4 days ago

TLE from 4 days ago
0 IRIDIUM 33 DEB
1 35850U 97051TA  26101.23617579  .00007221  00000-0  90432-3 0  9996
2 35850  86.3439 289.7329 0010537 135.1252 225.0824 14.82089995731257
Epoch: 2026-04-11T05:40Z
TLE epoch observation values (Epoch: 2026-04-11T05:40:05.588Z)
Latitude
-0.00001°
Longitude
5.25123°
Altitude
631.066 km
Speed
7.54 km/s
True Right ascension
19h 18m 55s
True Declination
0° 00' 00"
Sunlit
Object was in daylight at epoch
Visualization orbit readout
Latitude
Unknown
Longitude
Unknown
Altitude
Unknown
Speed
Unknown
Apparent Right ascension
Unknown
Apparent Declination
Unknown
Sunlit
N/A
Visualization observer readout
Local Sidereal Time
19:00:19
Azimuth
Unknown
Elevation
Unknown
Doppler factor
Unknown
Orbital elements
Apogee altitude
627.007 km
Perigee altitude
612.26 km
Semi-major axis
6,997.77 km
Eccentricity
0.00105
Inclination
86.3439°
RAAN
289.7329°
Arg. of periapsis
135.1252°
True anomaly
224.99698°
Mean anomaly
225.0824°
Eccentric anomaly
225.03968°
Mean motion
3.70769 °/min
Orbital period
97.1 mins
BSTAR
0.00090432
Loading maneuver chart data...
Computing Atmospheric mass density...

Documentation

Showing up to 5 results
|